Location: La Tine
(46.4708°N, 7.0525°E)
Time: 03:39:14
(UTC+00:00)

SJ-11-01 - Visible Passes

Search period start: 26 January 2021 00:00
Search period end: 05 February 2021 00:00
Orbit: 683 x 701 km, 98.0° (Epoch: 25 January)

Date Brightness Start Highest point End Pass type
(mag) Time Alt. Az. Time Alt. Az. Time Alt. Az.
26 Jan 4.3 17:54:57 10° SSE 17:59:30 55° ENE 18:04:05 10° N visible
26 Jan 6.9 19:34:11 10° SW 19:37:24 18° W 19:40:39 10° NW visible
27 Jan 7.7 05:52:27 10° ENE 05:53:53 11° E 05:55:20 10° ESE visible
27 Jan 5.7 16:59:00 10° ESE 17:02:03 18° ENE 17:05:08 10° NNE visible
27 Jan 4.7 18:34:30 10° S 18:39:09 63° W 18:43:48 10° NNW visible
28 Jan 4.7 17:37:05 10° SE 17:41:23 37° ENE 17:45:41 10° N visible
28 Jan 6.3 19:15:05 10° SSW 19:19:01 27° W 19:23:00 10° NW visible
29 Jan 4.2 18:16:15 10° SSE 18:20:55 87° E 18:25:37 10° NNW visible
29 Jan 7.5 19:57:44 10° WSW 19:59:08 11° W 20:00:33 10° WNW visible
30 Jan 7.2 06:12:22 10° NE 06:15:38 18° E 06:18:53 10° SE visible
30 Jan 5.2 17:19:26 10° ESE 17:23:18 26° ENE 17:27:11 10° N visible
30 Jan 5.6 18:56:20 10° SSW 19:00:42 39° W 19:05:05 10° NNW visible
31 Jan 4.2 17:58:10 10° SSE 18:02:45 59° ENE 18:07:21 10° N visible
31 Jan 7.0 19:37:42 10° SW 19:40:42 17° W 19:43:44 10° NW visible
01 Feb 7.6 05:55:16 10° ENE 05:57:12 12° E 05:59:09 10° ESE visible
01 Feb 5.6 17:02:03 10° ESE 17:05:16 19° ENE 17:08:30 10° NNE visible
01 Feb 4.8 18:37:49 10° S 18:42:25 58° W 18:47:02 10° NNW visible
02 Feb 4.7 17:40:16 10° SE 17:44:37 40° ENE 17:48:59 10° N visible
02 Feb 6.5 19:18:31 10° SSW 19:22:19 25° W 19:26:09 10° NW visible
03 Feb 4.2 18:19:30 10° SSE 18:24:11 86° WSW 18:28:53 10° NNW visible
03 Feb 7.5 20:02:00 10° W 20:02:27 10° W 20:02:54 10° W visible
04 Feb 7.2 06:15:29 10° NE 06:18:56 20° E 06:22:22 10° SE visible
04 Feb 5.1 17:22:34 10° ESE 17:26:31 28° ENE 17:30:29 10° N visible
04 Feb 5.8 18:59:41 10° SSW 19:03:58 36° W 19:08:17 10° NNW visible
